Location: Cheadle
(51.0146°N, 113.5417°W)
Time: 05:40:34
(UTC+00:00)

BlueWalker 3 - Pass Details

Date: 24 April 2024
Orbit: 481 x 494 km, 53.2° (Epoch: 28 May)

Event Time Altitude Azimuth Distance (km) Brightness Sun altitude
Rises 04:05:42 0° 265° (W) 2,570 6.3 -11.8°
Reaches altitude 10° 04:07:53 10° 268° (W) 1,691 5.4 -12.1°
Maximum altitude 04:11:41 65° 352° (N) 547 2.3 -12.6°
Drops below altitude 10° 04:15:30 10° 75° (ENE) 1,698 4.3 -13.0°
Enters shadow 04:15:59 - 75° (ENE) 1,889 4.5 -13.1°
